Regional Weather Roundup
Issued by NWS

Home | Current Version | Previous Version | Text Only | Print | Product List | Glossary Off
Versions: 1 2 3 4 5 6 7 8 9 10 11 12 13 14 15 16 17 18 19 20 21 22 23 24 25 26 27 28 29 30 31 32 33 34 35 36 37 38 39 40 41 42 43 44 45 46 47 48 49 50

000
ASUS45 KABQ 262201
RWRNM
WEATHER ROUNDUP FOR NEW MEXICO
NATIONAL WEATHER SERVICE ALBUQUERQUE NM
300 PM MST THU FEB 26 2015

NOTE: "FAIR" MEANS FEW OR NO CLOUDS BELOW 12,000 FEET AGL WITH NO
       SIGNIFICANT WEATHER OR OBSTRUCTIONS TO VISION.

      THIS PRODUCT IS RELEASED AS TWO VERSIONS.  ONE VERSION NEAR
      THE TOP OF THE HOUR CONTAINING PRELIMINARY DATA FROM ALBUQUERQUE
      AND OTHER STATIONS.  A FINAL VERSION WITH ADDITIONAL DATA IS
      ISSUED ABOUT 10 MINUTES AFTER THE HOUR.

NMZ501-503-504-510>518-262300-
NORTHWEST PLATEAU/NORTHCENTRAL MOUNTAINS

CITY           SKY/WX    TMP DP  RH WIND       PRES   REMARKS
FARMINGTON     SUNNY     45  20  36 W5        29.87F
SANTA FE       CLOUDY    28  18  66 SE20G28   29.99F WCI  15
TAOS           PTSUNNY   30  19  64 SW14      29.93F WCI  20
ANGEL FIRE     CLOUDY    20  15  79 S16       29.91S WCI   6

$$
NMZ402-403-502-505>509-262300-
WESTCENTRAL MOUNTAINS/SOUTHWEST MOUNTAINS

CITY           SKY/WX    TMP DP  RH WIND       PRES   REMARKS
GALLUP         CLOUDY    45  20  36 SW9       29.89F
SILVER CITY    PTSUNNY   55  16  21 SW10G18   29.92F

$$
NMZ407-409-411-412-262300-
SOUTHERN DESERTS

CITY           SKY/WX    TMP DP  RH WIND       PRES   REMARKS
DEMING         PTSUNNY   60  22  23 S12G21    29.90F
HOLLOMAN AFB   MOSUNNY   53  27  37 S21G28    29.94F
ALAMOGORDO     MOSUNNY   52  27  37 S18G30    29.96F
T OR C         CLOUDY    57  22  25 S15       29.88F

$$
NMZ519>523-262300-
CENTRAL VALLEYS/CENTRAL HIGHLANDS

CITY           SKY/WX    TMP DP  RH WIND       PRES   REMARKS
ALBUQUERQUE    CLOUDY    39  22  50 E25       29.96F WCI  28
DOUBLE EAGLE   CLOUDY    41  21  45 SE8       29.96F
MORIARTY ARPT  CLOUDY    27  21  79 SE16      30.04F WCI  14
CLINES CORNERS FOG       20  18  92 SE14      29.99F VSB 1/4 WCI   7
BELEN          FAIR      48  22  35 SE10      29.94F
SOCORRO          N/A     51  23  33 SE8       29.92F

$$
NMZ524>526-539-540-262300-
SOUTHCENTRAL MOUNTAINS

CITY           SKY/WX    TMP DP  RH WIND       PRES   REMARKS
RUIDOSO        NOT AVBL

$$
NMZ527>531-262300-
NORTHEAST HIGHLANDS/NORTHEAST PLAINS

CITY           SKY/WX    TMP DP  RH WIND       PRES   REMARKS
LAS VEGAS      FOG       18  16  92 S18       30.02S VSB 1   WCI   2
RATON          CLOUDY    17  15  92 S13G22    30.02F WCI   4
CLAYTON        FLURRIES  19  13  77 E9        30.16S WCI   8

$$
NMZ532>537-262300-
EASTCENTRAL PLAINS

CITY           SKY/WX    TMP DP  RH WIND       PRES   REMARKS
TUCUMCARI      CLOUDY    25  19  78 E10       30.20F WCI  15
CANNON AFB     CLOUDY    23  19  83 E14       30.18F WCI  11
CLOVIS AIRPORT CLOUDY    23  18  80 E14       30.20S WCI  11

$$
NMZ028-029-538-262300-
SOUTHEAST PLAINS

CITY           SKY/WX    TMP DP  RH WIND       PRES   REMARKS
ROSWELL        CLOUDY    33  20  58 E10       30.18F WCI  25
ARTESIA        CLOUDY    32  27  80 SE12      30.19F WCI  23
CARLSBAD       CLOUDY    35  25  66 E13       30.19F WCI  26
HOBBS          CLOUDY    28  19  69 NE16G22   30.21F WCI  17


$$



USA.gov is the U.S. government's official web portal to all federal, state and local government web resources and services.